TimeEST,TemperatureF,Dew PointF,Humidity,Sea Level PressureIn,VisibilityMPH,Wind Direction,Wind SpeedMPH,Gust SpeedMPH,PrecipitationIn,Events,Conditions,WindDirDegrees,DateUTC
12:15 AM,12.2,3.2,67,30.36,10.0,NNE,9.2,-,N/A,,Clear,30,2014-02-12 05:15:00
12:35 AM,12.2,3.2,67,30.36,10.0,NE,6.9,-,N/A,,Clear,40,2014-02-12 05:35:00
12:55 AM,12.2,3.2,67,30.35,10.0,NE,6.9,-,N/A,,Clear,40,2014-02-12 05:55:00
1:15 AM,12.2,3.2,67,30.35,10.0,NNE,8.1,-,N/A,,Clear,20,2014-02-12 06:15:00
1:35 AM,10.4,3.2,73,30.35,10.0,NNE,6.9,-,N/A,,Clear,20,2014-02-12 06:35:00
1:55 AM,10.4,3.2,73,30.33,10.0,NNE,8.1,-,N/A,,Clear,30,2014-02-12 06:55:00
2:15 AM,10.4,1.4,67,30.32,10.0,NNE,6.9,-,N/A,,Clear,30,2014-02-12 07:15:00
2:35 AM,10.4,3.2,73,30.32,10.0,NNE,6.9,-,N/A,,Clear,30,2014-02-12 07:35:00
2:55 AM,10.4,3.2,73,30.31,10.0,NE,8.1,-,N/A,,Clear,40,2014-02-12 07:55:00
3:15 AM,10.4,3.2,73,30.30,10.0,NE,9.2,-,N/A,,Clear,40,2014-02-12 08:15:00
3:35 AM,10.4,3.2,73,30.29,10.0,NE,8.1,-,N/A,,Clear,50,2014-02-12 08:35:00
3:55 AM,10.4,3.2,73,30.28,10.0,ENE,6.9,-,N/A,,Clear,60,2014-02-12 08:55:00
4:15 AM,10.4,3.2,73,30.27,10.0,NE,6.9,-,N/A,,Clear,40,2014-02-12 09:15:00
4:35 AM,10.4,3.2,73,30.26,10.0,ENE,5.8,-,N/A,,Clear,70,2014-02-12 09:35:00
4:55 AM,10.4,3.2,73,30.25,10.0,NE,4.6,-,N/A,,Clear,40,2014-02-12 09:55:00
5:15 AM,10.4,3.2,73,30.27,10.0,NNE,4.6,-,N/A,,Clear,20,2014-02-12 10:15:00
5:35 AM,10.4,3.2,73,30.26,10.0,NNE,5.8,-,N/A,,Clear,20,2014-02-12 10:35:00
5:55 AM,10.4,3.2,73,30.26,10.0,NE,5.8,-,N/A,,Clear,40,2014-02-12 10:55:00
6:15 AM,10.4,3.2,73,30.25,10.0,NE,6.9,-,N/A,,Clear,40,2014-02-12 11:15:00
6:35 AM,10.4,3.2,73,30.25,10.0,NNE,6.9,-,N/A,,Clear,30,2014-02-12 11:35:00
6:55 AM,10.4,3.2,73,30.24,10.0,NE,6.9,-,N/A,,Clear,40,2014-02-12 11:55:00
7:15 AM,10.4,3.2,73,30.24,10.0,NE,6.9,-,N/A,,Clear,40,2014-02-12 12:15:00
7:35 AM,10.4,3.2,73,30.24,10.0,NNE,6.9,-,N/A,,Clear,20,2014-02-12 12:35:00
7:55 AM,10.4,3.2,73,30.24,10.0,NNE,6.9,-,N/A,,Clear,20,2014-02-12 12:55:00
8:15 AM,10.4,3.2,73,30.24,10.0,NNE,6.9,-,N/A,,Clear,20,2014-02-12 13:15:00
8:35 AM,10.4,5.0,79,30.24,10.0,NNE,6.9,-,N/A,,Clear,30,2014-02-12 13:35:00
8:55 AM,12.2,5.0,73,30.24,10.0,NE,6.9,-,N/A,,Clear,50,2014-02-12 13:55:00
9:15 AM,14.0,6.8,73,30.25,10.0,East,6.9,-,N/A,,Clear,90,2014-02-12 14:15:00
9:35 AM,15.8,6.8,68,30.24,10.0,ESE,8.1,-,N/A,,Clear,110,2014-02-12 14:35:00
9:55 AM,17.6,8.6,68,30.24,10.0,East,5.8,-,N/A,,Clear,100,2014-02-12 14:55:00
10:15 AM,19.4,8.6,63,30.24,10.0,ENE,5.8,-,N/A,,Clear,60,2014-02-12 15:15:00
10:35 AM,19.4,8.6,63,30.23,10.0,NE,5.8,-,N/A,,Clear,40,2014-02-12 15:35:00
10:55 AM,21.2,10.4,63,30.22,10.0,NNE,6.9,-,N/A,,Clear,20,2014-02-12 15:55:00
11:15 AM,21.2,10.4,63,30.22,10.0,North,8.1,-,N/A,,Clear,10,2014-02-12 16:15:00
11:35 AM,23.0,10.4,59,30.20,10.0,NNE,4.6,-,N/A,,Clear,20,2014-02-12 16:35:00
11:55 AM,24.8,10.4,54,30.20,10.0,NNE,5.8,-,N/A,,Clear,20,2014-02-12 16:55:00
12:15 PM,26.6,12.2,55,30.19,10.0,North,5.8,-,N/A,,Clear,360,2014-02-12 17:15:00
12:35 PM,26.6,14.0,59,30.18,10.0,NNE,3.5,-,N/A,,Clear,20,2014-02-12 17:35:00
12:55 PM,28.4,14.0,55,30.16,10.0,Calm,Calm,-,N/A,,Clear,0,2014-02-12 17:55:00
1:15 PM,30.2,14.0,51,30.14,10.0,Calm,Calm,-,N/A,,Clear,0,2014-02-12 18:15:00
1:35 PM,30.2,15.8,55,30.13,10.0,West,4.6,-,N/A,,Clear,280,2014-02-12 18:35:00
1:55 PM,32.0,15.8,51,30.12,10.0,Calm,Calm,-,N/A,,Clear,0,2014-02-12 18:55:00
2:15 PM,33.8,15.8,48,30.11,10.0,NNE,6.9,-,N/A,,Clear,20,2014-02-12 19:15:00
2:35 PM,33.8,17.6,52,30.09,10.0,Calm,Calm,-,N/A,,Clear,0,2014-02-12 19:35:00
2:55 PM,33.8,15.8,48,30.08,10.0,Calm,Calm,-,N/A,,Clear,0,2014-02-12 19:55:00
3:15 PM,33.8,17.6,52,30.07,10.0,NW,5.8,-,N/A,,Clear,320,2014-02-12 20:15:00
3:35 PM,35.6,17.6,48,30.06,10.0,WNW,8.1,-,N/A,,Clear,300,2014-02-12 20:35:00
3:55 PM,33.8,17.6,52,30.05,10.0,NW,8.1,-,N/A,,Clear,320,2014-02-12 20:55:00
4:15 PM,33.8,17.6,52,30.05,10.0,NW,8.1,-,N/A,,Clear,320,2014-02-12 21:15:00
4:35 PM,33.8,17.6,52,30.04,10.0,NW,6.9,-,N/A,,Clear,320,2014-02-12 21:35:00
4:55 PM,33.8,17.6,52,30.04,10.0,NW,6.9,-,N/A,,Clear,320,2014-02-12 21:55:00
5:15 PM,33.8,17.6,52,30.04,10.0,NW,6.9,-,N/A,,Clear,320,2014-02-12 22:15:00
5:35 PM,33.8,17.6,52,30.04,10.0,NNW,5.8,-,N/A,,Clear,330,2014-02-12 22:35:00
5:55 PM,33.8,15.8,48,30.03,10.0,NW,5.8,-,N/A,,Clear,310,2014-02-12 22:55:00
6:15 PM,32.0,17.6,55,30.03,10.0,NNW,4.6,-,N/A,,Clear,330,2014-02-12 23:15:00
6:35 PM,30.2,17.6,60,30.03,10.0,NNW,5.8,-,N/A,,Clear,330,2014-02-12 23:35:00
6:55 PM,30.2,17.6,60,30.04,10.0,NNW,4.6,-,N/A,,Clear,340,2014-02-12 23:55:00
7:15 PM,30.2,17.6,60,30.04,10.0,North,3.5,-,N/A,,Clear,350,2014-02-13 00:15:00
7:35 PM,28.4,17.6,64,30.04,10.0,North,3.5,-,N/A,,Clear,350,2014-02-13 00:35:00
7:55 PM,28.4,17.6,64,30.04,10.0,NNW,4.6,-,N/A,,Clear,330,2014-02-13 00:55:00
8:15 PM,28.4,17.6,64,30.04,10.0,NNW,4.6,-,N/A,,Clear,340,2014-02-13 01:15:00
8:35 PM,28.4,17.6,64,30.04,10.0,North,5.8,-,N/A,,Clear,360,2014-02-13 01:35:00
8:55 PM,28.4,15.8,59,30.04,10.0,North,5.8,-,N/A,,Clear,360,2014-02-13 01:55:00
9:15 PM,26.6,15.8,64,30.03,10.0,North,5.8,-,N/A,,Clear,10,2014-02-13 02:15:00
9:35 PM,26.6,15.8,64,30.03,10.0,North,5.8,-,N/A,,Clear,350,2014-02-13 02:35:00
9:55 PM,24.8,15.8,69,30.03,10.0,North,5.8,-,N/A,,Clear,10,2014-02-13 02:55:00
10:15 PM,24.8,15.8,69,30.04,10.0,North,4.6,-,N/A,,Clear,360,2014-02-13 03:15:00
10:35 PM,24.8,15.8,69,30.04,10.0,North,3.5,-,N/A,,Clear,360,2014-02-13 03:35:00
10:55 PM,24.8,14.0,64,30.03,10.0,North,4.6,-,N/A,,Clear,360,2014-02-13 03:55:00
11:15 PM,24.8,14.0,64,30.03,10.0,NNE,4.6,-,N/A,,Clear,20,2014-02-13 04:15:00
11:35 PM,23.0,14.0,68,30.02,10.0,NNE,4.6,-,N/A,,Clear,20,2014-02-13 04:35:00
11:55 PM,23.0,15.8,74,30.02,10.0,NE,3.5,-,N/A,,Clear,50,2014-02-13 04:55:00